Weather History for Norwood, MA

Change the Weather History Date:

Tuesday, November 20, 2012

  Actual Average Record
Temperature  
Mean Temperature 36 °F -  
Max Temperature 50 °F 47 °F 66 °F (1999)
Min Temperature 21 °F 28 °F 17 °F (2013)
Degree Days  
Heating Degree Days 30    
Moisture  
Dew Point 26 °F    
Average Humidity 86    
Maximum Humidity 100    
Minimum Humidity 58    
Precipitation  
Precipitation 0.00 in - - ()
Sea Level Pressure  
Sea Level Pressure 30.20 in    
Wind  
Wind Speed 1 mph (NE)    
Max Wind Speed 12 mph    
Max Gust Speed -    
Visibility 5 miles    
Events Fog    
Averages and records for this station are not official NWS values.
T = Trace of Precipitation, MM = Missing Value Source: NWS Daily Summary

Daily Weather History Graph

Daily Weather History Graph

Search for Another Location

Airport:

Trip Planner

Search our weather history database for the weather conditions in past years. The results will help you decide how hot, cold, wet, or windy it might be!

Date:

Astronomy

Nov. 20, 2012 Rise Set
Actual Time 6:41 AM EST 4:18 PM EST
Civil Twilight 6:11 AM EST 4:49 PM EST
Nautical Twilight 5:36 AM EST 5:23 PM EST
Astronomical Twilight 5:03 AM EST 5:56 PM EST
Moon 12:10 PM EST 11:51 PM EST
Length of Visible Light 10h 38m
Length of Day
9h 37m
Waxing Crescent, 51% of the Moon is Illuminated
Nov 20
Waxing Crescent
Nov 28
Full
Dec 6
Last Quarter
Dec 13
New
Dec 20
First Quarter

Hourly Weather History & Observations

Time (EST) Temp. Windchill Dew Point Humidity Pressure Visibility Wind Dir Wind Speed Gust Speed Precip Events Conditions
12:00 AM 24.8 °F - 23.0 °F 93% 30.27 in 1.2 mi Calm Calm - N/A   Partly Cloudy
12:12 AM 23.0 °F - 21.2 °F 93% 30.27 in 0.2 mi Calm Calm - N/A Fog Light Freezing Fog
12:27 AM 23.0 °F - 21.2 °F 93% 30.27 in 0.8 mi Calm Calm - N/A   Mist
12:53 AM 24.1 °F - 23.0 °F 96% 30.26 in 0.5 mi Calm Calm - N/A Fog Light Freezing Fog
1:01 AM 23.0 °F - 21.2 °F 93% 30.25 in 0.8 mi Calm Calm - N/A   Clear
1:05 AM 23.0 °F - 21.2 °F 93% 30.25 in 2.0 mi Calm Calm - N/A   Clear
1:12 AM 24.8 °F - 19.4 °F 80% 30.25 in 10.0 mi Calm Calm - N/A   Scattered Clouds
1:21 AM 23.0 °F - 19.4 °F 86% 30.25 in 3.0 mi Calm Calm - N/A   Mostly Cloudy
1:24 AM 23.0 °F - 19.4 °F 86% 30.25 in 1.5 mi Calm Calm - N/A   Mostly Cloudy
1:28 AM 23.0 °F - 19.4 °F 86% 30.25 in 0.8 mi Calm Calm - N/A   Scattered Clouds
1:53 AM 23.0 °F - 21.9 °F 96% 30.25 in 1.2 mi Calm Calm - N/A   Clear
1:57 AM 23.0 °F - 21.2 °F 93% 30.25 in 4.0 mi Calm Calm - N/A   Clear
2:10 AM 23.0 °F - 19.4 °F 86% 30.24 in 1.8 mi Calm Calm - N/A   Clear
2:19 AM 23.0 °F - 21.2 °F 93% 30.24 in 0.5 mi Calm Calm - N/A Fog Light Freezing Fog
2:33 AM 24.8 °F - 21.2 °F 86% 30.24 in 2.5 mi Calm Calm - N/A   Clear
2:40 AM 23.0 °F - 21.2 °F 93% 30.23 in 3.0 mi Calm Calm - N/A   Clear
2:49 AM 21.2 °F - 19.4 °F 93% 30.23 in 1.5 mi Calm Calm - N/A   Clear
2:53 AM 21.0 °F - 19.9 °F 96% 30.23 in 0.8 mi Calm Calm - N/A   Clear
2:57 AM 21.2 °F - 19.4 °F 93% 30.23 in 0.5 mi Calm Calm - N/A Fog Light Freezing Fog
3:05 AM 21.2 °F - 19.4 °F 93% 30.22 in 1.2 mi Calm Calm - N/A   Partly Cloudy
3:17 AM 23.0 °F - 19.4 °F 86% 30.22 in 3.0 mi Calm Calm - N/A   Clear
3:50 AM 21.2 °F - 19.4 °F 93% 30.21 in 1.8 mi Calm Calm - N/A   Clear
3:53 AM 21.9 °F - 19.9 °F 92% 30.21 in 1.2 mi Calm Calm - N/A   Clear
4:02 AM 21.2 °F - 17.6 °F 86% 30.21 in 3.0 mi Calm Calm - N/A   Clear
4:53 AM 21.9 °F - 19.0 °F 89% 30.20 in 9.0 mi Calm Calm - N/A   Clear
5:53 AM 21.0 °F - 18.0 °F 88% 30.20 in 9.0 mi Calm Calm - N/A   Clear
6:53 AM 21.9 °F - 19.0 °F 89% 30.20 in 10.0 mi Calm Calm - N/A   Clear
7:53 AM 28.0 °F - 26.1 °F 92% 30.21 in 8.0 mi Calm Calm - N/A   Clear
8:53 AM 36.0 °F - 32.0 °F 86% 30.21 in 10.0 mi Calm Calm - N/A   Clear
9:53 AM 42.1 °F 40.2 °F 33.1 °F 70% 30.20 in 10.0 mi NNW 3.5 mph - N/A   Clear
10:53 AM 48.0 °F - 34.0 °F 58% 30.18 in 10.0 mi NNE 6.9 mph - N/A   Partly Cloudy
11:09 AM 48.2 °F - 35.6 °F 62% 30.17 in 10.0 mi NE 5.8 mph - N/A   Mostly Cloudy
11:53 AM 48.9 °F - 37.0 °F 64% 30.16 in 10.0 mi ENE 9.2 mph - N/A   Mostly Cloudy
12:53 PM 50.0 °F - 36.0 °F 59% 30.15 in 10.0 mi ENE 11.5 mph - N/A   Mostly Cloudy
2:53 PM 48.0 °F - 36.0 °F 63% 30.14 in 10.0 mi ENE 6.9 mph - N/A   Mostly Cloudy
3:27 PM 46.4 °F 44.3 °F 35.6 °F 66% 30.15 in 10.0 mi NE 4.6 mph - N/A   Scattered Clouds
3:43 PM 46.4 °F 44.3 °F 35.6 °F 66% 30.15 in 10.0 mi NE 4.6 mph - N/A   Mostly Cloudy
3:51 PM 46.4 °F 44.3 °F 35.6 °F 66% 30.15 in 10.0 mi East 4.6 mph - N/A   Scattered Clouds
3:53 PM 46.0 °F 44.8 °F 35.1 °F 66% 30.15 in 10.0 mi Variable 3.5 mph - N/A   Mostly Cloudy
4:53 PM 37.9 °F - 32.0 °F 79% 30.15 in 10.0 mi Calm Calm - N/A   Clear
5:53 PM 36.0 °F - 32.0 °F 86% 30.15 in 10.0 mi Calm Calm - N/A   Clear
6:53 PM 33.1 °F - 30.0 °F 89% 30.16 in 10.0 mi Calm Calm - N/A   Clear
7:53 PM 32.0 °F - 30.0 °F 92% 30.16 in 10.0 mi Calm Calm - N/A   Clear
8:36 PM 30.2 °F - 28.4 °F 93% 30.15 in 1.5 mi Calm Calm - N/A   Clear
8:46 PM 32.0 °F - 30.2 °F 93% 30.15 in 3.0 mi Calm Calm - N/A   Clear
8:53 PM 32.0 °F - 30.9 °F 96% 30.16 in 8.0 mi Calm Calm - N/A   Clear
9:53 PM 30.9 °F - 28.9 °F 92% 30.16 in 5.0 mi Calm Calm - N/A   Clear
10:43 PM 30.2 °F - 28.4 °F 93% 30.15 in 2.5 mi Calm Calm - N/A   Partly Cloudy
10:46 PM 30.2 °F - 28.4 °F 93% 30.16 in 1.0 mi Calm Calm - N/A   Mist
10:53 PM 30.0 °F - 28.0 °F 92% 30.16 in 1.2 mi Calm Calm - N/A   Partly Cloudy
11:05 PM 30.2 °F - 28.4 °F 93% 30.16 in 1.0 mi Calm Calm - N/A   Mist
11:09 PM 28.4 °F - 26.6 °F 93% 30.15 in 2.0 mi Calm Calm - N/A   Clear
11:17 PM 30.2 °F - 26.6 °F 86% 30.15 in 1.8 mi Calm Calm - N/A   Clear
11:20 PM 30.2 °F - 26.6 °F 86% 30.15 in 3.0 mi Calm Calm - N/A   Clear
11:34 PM 28.4 °F - 28.4 °F 100% 30.16 in 1.8 mi Calm Calm - N/A   Clear
11:44 PM 30.2 °F - 28.4 °F 93% 30.16 in 3.0 mi Calm Calm - N/A   Clear
11:49 PM 30.2 °F - 28.4 °F 93% 30.16 in 1.8 mi Calm Calm - N/A   Clear
11:53 PM 30.0 °F - 28.0 °F 92% 30.16 in 1.8 mi Calm Calm - N/A   Clear